Regional Weather Roundup
Issued by NWS Sioux Falls, SD

Home | Current Version | Previous Version | Text Only | Print | Product List | Glossary Off
Versions: 1 2 3 4 5 6 7 8 9 10 11 12 13 14 15 16 17 18 19 20 21 22 23 24 25 26 27 28 29 30 31 32 33 34 35 36 37 38 39 40 41 42 43 44 45 46 47 48 49 50

000
ASUS43 KFSD 250002
RWRFSD

WEATHER ROUNDUP FOR SE SOUTH DAKOTA/SW MINNESOTA/NW IOWA
NATIONAL WEATHER SERVICE SIOUX FALLS SD
600 PM CST FRI FEB 24 2017

NOTE: "FAIR" INDICATES FEW OR NO CLOUDS BELOW 12,000 FEET WITH NO
SIGNIFICANT WEATHER AND OR OBSTRUCTIONS TO VISIBILITY.


SDZ038>040-050-052>070-250100-
SOUTHEAST SOUTH DAKOTA

CITY           SKY/WX    TMP DP  RH WIND       PRES   REMARKS
BROOKINGS      CLOUDY    23  15  71 N20       29.96R WCI   8
CHAMBERLAIN    PTCLDY    32  16  51 NW17G26   30.08R WCI  21
6HR MIN TEMP:  28; 6HR MAX TEMP:  34;

HURON          CLEAR     29  15  56 N24G30    30.06R WCI  15
6HR MIN TEMP:  29; 6HR MAX TEMP:  34;

MADISON        FAIR      23  18  80 N25       29.98R WCI   7
MITCHELL       PTCLDY    30  16  56 N21       30.05R WCI  17
6HR MIN TEMP:  28; 6HR MAX TEMP:  33;

SIOUX FALLS    CLOUDY    26  17  68 N16       29.97R WCI  14
6HR MIN TEMP:  24; 6HR MAX TEMP:  28;

WINNER         MOCLDY    27  16  63 NW16      30.09R WCI  15
YANKTON        CLOUDY    25  14  63 NW13      30.01R WCI  13
$$

MNZ071-072-080-081-089-090-097-098-250100-
SOUTHWEST MINNESOTA

CITY           SKY/WX    TMP DP  RH WIND       PRES   REMARKS
FAIRMONT       CLOUDY    23  17  78 N23       29.84R WCI   7
JACKSON        CLOUDY    23  16  74 N24G32    29.86R WCI   7
LUVERNE        CLOUDY    25  16  68 N16G26    29.96R WCI  12
MARSHALL       CLOUDY    24  16  71 N29G37    29.94R WCI   7
6HR MIN TEMP:  24; 6HR MAX TEMP:  28; 6HR PCP: TRACE;

MONTEVIDEO     MOCLDY    25  16  68 N25G32    29.98R WCI   9
PIPESTONE      CLOUDY    25  12  58 N23G33    29.94R WCI  10
REDWOOD FALLS  PTCLDY    27  11  51 N13G21    29.91R WCI  16
TRACY          CLOUDY    26  17  68 N18G31    29.94R WCI  13
WINDOM         CLOUDY    23  16  74 NW25G36   29.88R WCI   7
WORTHINGTON    MIX PCPN  22  16  78 N31G37    29.89R WCI   4
$$

IAZ001>003-012>014-020>022-031-032-NEZ013-014-SDZ071-250100-
NORTHWEST IOWA

CITY           SKY/WX    TMP DP  RH WIND       PRES   REMARKS
CHEROKEE       CLOUDY    24  18  77 N17G26    29.91R WCI  10
DENISON        CLOUDY    23  18  80 NW15G23   29.89R WCI  10
ESTHERVILLE    CLOUDY    22  15  75 N17       29.85R WCI   8
LE MARS        PTCLDY    25  18  74 N18       29.95S WCI  11
SHELDON        PTCLDY    23  21  93 N23G30    29.91R WCI   7
SIOUX CITY     CLEAR     27  17  66 N22G29    29.96R WCI  13
6HR MIN TEMP:  24; 6HR MAX TEMP:  28;

SPENCER        CLOUDY    23  16  74 N25G32    29.88R WCI   7
6HR MIN TEMP:  23; 6HR MAX TEMP:  25; 6HR PCP: TRACE;

STORM LAKE     CLOUDY    23  16  74 N22G29    29.87R WCI   8
$$

ABBREVIATIONS USED IN REMARKS
   TC - TEMPERATURE IN CELSIUS
  WCI - WIND CHILL INDEX
   HX - HEAT INDEX
  VSB - VISIBILITY





USA.gov is the U.S. government's official web portal to all federal, state and local government web resources and services.